This is the latest recevied weather packets stored in our database for station/object KP4CRN. If no packets are shown the sender has not sent any weather packets the latest 10 day(s).
| Time | Temp. | Humidity | Pressure | Rain* | Wind** | Luminosity | Snow |
|---|---|---|---|---|---|---|---|
| 1777461219 | 25° C | 98% | 1015.1 hPa | 0 mm | - | 149 W/m² | - |
| 1777460913 | 24.44° C | 99% | 1014.8 hPa | 0 mm | - | 102 W/m² | - |
| 1777460609 | 23.89° C | 99% | 1014.9 hPa | 0 mm | - | 108 W/m² | - |
| 1777460305 | 23.89° C | 99% | 1014.9 hPa | 0 mm | - | 60 W/m² | - |
| 1777460002 | 23.89° C | 99% | 1014.8 hPa | 0 mm | - | 85 W/m² | - |
| 1777459699 | 23.89° C | 99% | 1014.7 hPa | 0 mm | - | 50 W/m² | - |
| 1777459395 | 23.89° C | 99% | 1014.9 hPa | 0 mm | - | 42 W/m² | - |
| 1777459094 | 23.33° C | 99% | 1014.6 hPa | 0 mm | - | 48 W/m² | - |
| 1777458791 | 23.33° C | 99% | 1014.6 hPa | 0 mm | - | 39 W/m² | - |
| 1777458487 | 23.33° C | 99% | 1014.7 hPa | 0 mm | - | 30 W/m² | - |
| 1777458184 | 23.33° C | 99% | 1014.6 hPa | 0 mm | - | 22 W/m² | - |
| 1777457879 | 23.33° C | 99% | 1014.5 hPa | 0 mm | - | 16 W/m² | - |
| 1777457575 | 23.33° C | 99% | 1014.5 hPa | 0 mm | - | 12 W/m² | - |
| 1777457270 | 23.33° C | 99% | 1014.5 hPa | 0 mm | - | 7 W/m² | - |
| 1777456966 | 23.33° C | 99% | 1014.5 hPa | 0 mm | - | 4 W/m² | - |
| 1777456661 | 23.33° C | 99% | 1014.5 hPa | 0 mm | - | 2 W/m² | - |
| 1777456356 | 23.33° C | 99% | 1014.3 hPa | 0 mm | - | 1 W/m² | - |
| 1777456053 | 23.33° C | 99% | 1014.5 hPa | 0 mm | - | 0 W/m² | - |
| 1777455749 | 23.33° C | 99% | 1014.3 hPa | 0 mm | - | 0 W/m² | - |
| 1777455446 | 23.33° C | 99% | 1014.2 hPa | 0 mm | - | 0 W/m² | - |
| 1777455142 | 23.33° C | 99% | 1014.2 hPa | 0 mm | - | 0 W/m² | - |
| 1777454840 | 23.33° C | 99% | 1014.2 hPa | 0 mm | - | 0 W/m² | - |
| 1777454536 | 23.33° C | 99% | 1014.1 hPa | 0 mm | - | 0 W/m² | - |
| 1777454232 | 23.33° C | 99% | 1013.9 hPa | 0 mm | - | 0 W/m² | - |
| 1777453930 | 23.33° C | 99% | 1013.9 hPa | 0 mm | - | 0 W/m² | - |
* Rain latest hour (hover to see other rain measurements)
** Current wind speed in m/s (hover to see current wind gust speed)